SCP
0 0 0 0 0 0 0 0 0 0 0 0 0 0 0 0 0 0 0 0 0 0 0 0 0 0 0 0 0 0 0 0 0 0 0 0 0 0 0 0 0 0 0 1
0 0 0 0 0 0 0 0 0 0 0 0 0 0 0 0 0 0 0 0 0 0 0 0 0 0 0 0 0 0 0 0 0 0 0 0 0 0 0 0 0 0 0 0
0 0 0 0 0 0 0 0 0 0 0 0 0 0 0 0 0 0 0 0 0 0 0 0 0 0 0 0 0 0 0 0 0 0 0 0 0 0 0 0 0 0 0 0
0 0 0 0 0 0 0 0 0 0 0 0 0 0 0 0 0 0 0 0 0 0 0 0 0 0 0 0 0 0 0 0 0 0 0 0 0 0 0 0 0 0 0 0
0 0 0 0 0 0 0 0 0 0 0 0 0 0 0 0 0 0 0 0 0 0 0 0 0 0 0 0 0 0 0 0 0 0 0 0 0 0 0 0 0 0 0 0
0 0 0 0 0 0 0 0 0 0 0 0 0 0 0 0 0 0 0 0 0 0 0 0 0 0 0 0 0 0 0 0 0 0 0 0 0 0 0 0 0 0 0 0
0 0 0 0 0 0 0 0 0 0 0 0 0 0 0 0 0 0 0 0 0 0 0 0 0 0 0 0 0 0 0 0 0 0 0 0 0 0 0 0 0 0 0 0
0 0 0 0 0 0 0 0 0 0 0 0 0 0 0 0 0 0 0 0 0 0 0 0 0 0 0 0 0 0 0 0 0 0 0 0 0 0 0 0 0 0 0 0
0 0 0 0 0 0 0 0 0 0 0 0 0 0 0 0 0 0 0 0 0 0 0 0 0 0 0 0 0 0 0 0 0 0 0 0 0 0 0 0 0 0 0 0
0 0 0 0 0 0 0 0 0 0 0 0 0 0 0 0 0 0 0 0 0 0 0 0 0 0 0 0 0 0 0 0 0 0 0 0 0 0 0 0 0 0 0 0
0 0 0 0 0 0 0 0 0 0 0 0 0 0 0 0 0 0 0 0 0 0 0 0 0 0 0 0 0 0 0 0 0 0 0 0 0 0 0 0 0 0 0 0
0 0 0 0 0 0 0 0 0 0 0 0 0 0 0 0 0 0 0 0 0 0 0 0 0 0 0 0 0 0 0 0 0 0 0 0 0 0 0 0 0 0 0 0
0 0 0 0 0 0 0 0 0 0 0 0 0 0 0 0 0 0 0 0 0 0 0 0 0 0 0 0 0 0 0 0 0 0 0 0 0 0 0 0 0 0 0 0
0 0 0 0 0 0 0 0 0 0 0 0 0 0 0 0 0 0 0 0 0 0 0 0 0 0 0 0 0 0 0 0 0 0 0 0 0 0 0 0 0 0 0 0
0 0 0 0 0 0 0 0 0 0 0 0 0 0 0 0 0 0 0 0 0 0 0 0 0 0 0 0 0 0 0 0 0 0 0 0 0 0 0 0 0 0 0 0
0 0 0 0 0 0 0 0 0 0 0 0 0 0 0 0 0 0 0 0 0 0 0 0 0 0 0 0 0 0 0 0 0 0 0 0 0 0 0 0 0 0 0 0
0 0 0 0 0 0 0 0 0 0 0 0 0 0 0 0 0 0 0 0 0 0 0 0 0 0 0 0 0 0 0 0 0 0 0 0 0 0 0 0 0 0 0 0
0 0 0 0 0 0 0 0 0 0 0 0 0 0 0 0 0 0 0 0 0 0 0 0 0 0 0 0 0 0 0 0 0 0 0 0 0 0 0 0 0 0 0 0
0 0 0 0 0 0 0 0 0 0 0 0 0 0 0 0 0 0 0 0 0 0 0 0 0 0 0 0 0 0 0 0 0 0 0 0 0 0 0 0 0 0 0 0
0 0 0 0 0 0 0 0 0 0 0 0 0 0 0 0 0 0 0 0 0 0 0 0 0 0 0 0 0 0 0 0 0 0 0 0 0 0 0 0 0 0 0 0
0 0 0 0 0 0 0 0 0 0 0 0 0 0 0 0 0 0 0 0 0 0 0 0 0 0 0 0 0 0 0 0 0 0 0 0 0 0 0 0 0 0 0 0
0 0 0 0 0 0 0 0 0 0 0 0 0 0 0 0 0 0 0 0 0 0 0 0 0 0 0 0 0 0 0 0 0 0 0 0 0 0 0 0 0 0 0 0
0 0 0 0 0 0 0 0 0 0 0 0 0 0 0 0 0 0 0 0 0 0 0 0 0 0 0 0 0 0 0 0 0 0 0 0 0 0 0 0 0 0 0 0
0 0 0 0 0 0 0 0 0 0 0 0 0 0 0 0 0 0 0 0 0 0 0 0 0 0 0 0 0 0 0 0 0 0 0 0 0 0 0 0 0 0 0 0
0 0 0 0 0 0 0 0 0 0 0 0 0 0 0 0 0 0 0 0 0 0 0 0 0 0 0 0 0 0 0 0 0 0 0 0 0 0 0 0 0 0 0 0
0 0 0 0 0 0 0 0 0 0 0 0 0 0 0 0 0 0 0 0 0 0 0 0 0 0 0 0 0 0 0 0 0 0 0 0 0 0 0 0 0 0 0 0
0 0 0 0 0 0 0 0 0 0 0 0 0 0 0 0 0 0 0 0 0 0 0 0 0 0 0 0 0 0 0 0 0 0 0 0 0 0 0 0 0 0 0 0
Wind_Speed
2 1 2 3 3 4 5 5 5 4 2 1 4 3 2 2 1 3 4 4 4 3 4 4 3 4 4 5 5 5 6 6 7 7 7 7 8 8 8 8 9 8 8 8
5 5 4 7 7 7 6 6 5 4 2 4 6 4 3 2 1 2 3 4 4 4 4 4 4 4 4 4 4 5 5 6 6 7 7 7 7 7 7 7 8 8 8 8
4 6 6 8 7 9 7 5 5 5 1 7 5 5 3 2 2 0 2 3 4 4 3 3 3 3 4 4 4 5 5 5 6 6 7 7 8 8 7 7 7 8 8 8
6 4 6 4 4 2 6 7 6 4 4 6 4 4 3 2 1 0 2 3 3 3 3 3 4 3 3 3 4 5 5 5 5 6 6 6 6 7 7 6 6 6 7 7
4 6 5 7 4 4 4 6 8 8 7 7 5 5 6 6 3 1 2 2 2 3 3 3 4 4 4 4 4 5 5 5 5 6 6 6 6 6 5 5 5 5 6 7
5 5 4 7 8 5 3 6 8 10 9 9 8 5 5 9 6 3 2 2 2 3 4 4 4 4 3 4 4 5 5 5 5 5 5 5 5 4 4 4 4 5 6 6
6 6 2 9 8 5 3 3 6 8 9 10 9 3 6 9 7 4 3 1 1 2 2 3 3 3 4 5 5 4 4 4 4 4 3 4 4 3 3 3 4 4 5 5
4 4 2 10 7 5 2 4 3 6 8 9 7 7 7 7 6 5 4 3 0 1 1 1 2 3 4 4 3 3 3 2 2 3 4 4 3 4 4 4 4 4 4 5
2 1 5 7 6 5 3 2 3 6 7 9 8 8 7 6 6 5 3 3 2 1 1 0 2 3 3 3 2 2 2 1 1 2 2 3 4 4 4 4 4 3 4 4
4 4 6 10 8 6 5 4 3 5 7 8 8 8 7 6 6 5 5 3 3 3 2 1 3 2 2 2 1 2 2 1 1 2 3 4 4 4 4 4 4 4 4 4
6 7 5 6 8 8 6 6 5 5 7 8 8 8 8 7 6 6 5 4 4 2 1 1 3 3 3 2 2 2 3 3 2 3 2 2 3 3 3 3 3 2 3 4
5 4 2 1 7 9 8 8 7 6 7 8 9 8 9 8 6 6 5 5 5 4 3 3 3 4 4 2 2 2 1 2 2 2 2 1 3 3 3 3 4 4 4 3
6 5 3 3 0 6 8 9 9 8 8 8 8 8 8 7 6 6 6 6 6 6 5 4 2 3 4 4 2 2 1 2 1 1 1 2 2 2 3 1 1 1 2 3
2 4 5 4 3 4 7 9 9 9 9 9 8 8 8 7 7 7 7 6 6 5 5 4 4 4 4 4 3 3 1 2 2 1 1 1 1 1 2 3 3 3 3 3
5 4 5 5 4 4 5 7 9 9 10 10 9 9 9 8 8 8 7 6 6 6 6 5 5 5 4 4 4 4 3 2 2 2 2 2 2 2 2 2 2 3 4 3
11 7 4 5 6 5 6 8 9 10 10 10 10 10 10 9 8 7 7 7 7 7 7 6 6 6 6 5 4 3 2 2 2 2 3 3 3 3 3 2 2 2 3 4
14 11 8 8 8 7 7 8 9 9 10 10 10 10 10 10 9 8 8 8 8 7 7 7 6 6 7 6 5 4 3 4 7 3 3 4 3 3 3 3 3 2 3 4
15 14 13 11 9 9 9 9 10 10 9 9 10 10 11 12 11 10 9 8 8 8 7 7 7 7 7 7 5 4 3 4 5 5 4 4 3 3 3 3 3 3 3 4
16 16 16 15 13 11 9 9 9 9 9 8 10 11 11 11 10 10 10 10 10 10 8 7 9 7 7 8 6 4 3 3 4 4 5 5 4 3 3 3 4 4 4 5
15 16 16 16 15 13 11 9 8 7 7 8 8 9 10 10 10 10 10 10 9 8 7 8 8 7 7 8 9 5 5 5 5 4 4 4 4 4 5 5 4 4 4 4
15 16 16 16 15 14 13 11 9 7 6 6 7 7 8 8 9 9 9 8 7 9 9 10 8 7 6 6 10 6 5 5 5 4 4 4 4 5 5 5 4 4 4 4
13 14 15 15 15 14 12 11 10 9 6 5 5 5 6 7 8 8 9 7 6 10 9 6 6 8 9 8 6 6 5 5 4 4 4 4 4 4 4 4 4 4 4 4
12 12 13 14 15 15 14 12 12 10 7 5 5 4 5 5 5 5 6 5 6 10 8 6 9 12 13 8 6 6 6 6 5 5 4 4 4 4 4 4 4 3 3 3
12 12 12 13 13 14 15 15 14 11 9 6 5 5 4 3 3 3 3 6 9 11 7 8 13 15 14 7 5 6 6 6 6 5 5 4 4 4 4 4 4 3 3 4
11 11 11 12 11 10 12 14 14 13 12 9 9 7 5 3 3 2 2 2 6 9 6 8 13 14 10 6 6 6 6 6 6 6 6 5 4 4 3 3 3 3 3 3
9 8 7 8 7 7 8 9 9 9 10 10 10 9 8 6 5 3 2 1 3 5 4 4 7 9 7 6 6 6 6 5 6 5 5 5 4 4 4 4 5 4 4 4
9 7 6 6 5 6 7 7 8 8 9 10 10 9 9 8 7 7 6 3 1 1 1 2 4 6 6 5 5 5 5 4 4 5 5 5 5 5 5 5 4 4 3 3
Wind_Direction
60 20 314 290 261 250 269 306 320 10 357 128 129 132 141 129 62 17 27 26 20 15 21 12 24 32 35 24 21 26 26 25 20 20 21 19 20 21 23 21 27 29 36 40
227 201 245 259 244 235 248 260 270 279 266 122 125 143 176 153 92 18 23 25 14 18 27 10 29 34 37 29 27 31 30 29 24 26 23 19 20 22 26 26 27 31 38 43
280 162 251 257 225 211 219 226 241 257 167 134 159 174 187 145 137 25 29 27 22 19 20 4 34 48 49 38 35 37 34 33 32 33 30 24 21 21 25 29 30 33 37 42
285 245 266 99 92 165 218 229 220 226 134 153 175 160 171 184 180 137 55 33 23 5 5 18 30 39 70 64 52 47 34 29 36 37 31 26 23 23 24 27 30 31 35 37
289 303 278 136 150 166 213 248 217 205 181 166 167 176 199 182 172 118 66 38 19 354 353 29 37 26 46 55 60 53 38 29 37 39 32 24 23 25 23 24 28 33 37 36
288 288 314 106 125 138 220 261 196 186 177 167 176 218 191 157 155 150 108 52 5 344 11 26 28 24 39 53 58 53 41 34 34 39 38 27 20 20 18 25 28 39 43 42
265 277 314 115 128 151 225 18 129 169 169 171 190 198 121 138 144 144 136 122 325 338 39 31 15 21 44 54 58 57 48 41 34 28 43 41 13 11 23 27 26 41 51 52
229 255 235 137 156 205 241 107 164 174 171 173 173 141 131 140 144 157 158 153 168 333 45 69 33 30 67 69 70 73 63 44 52 39 26 42 26 14 18 20 29 38 46 48
258 322 114 170 199 234 286 259 184 173 170 169 169 162 155 159 161 168 176 162 157 206 280 168 99 63 78 90 101 115 112 74 63 89 68 39 30 28 21 19 25 29 36 42
288 273 198 200 215 228 234 257 220 175 169 171 175 171 167 172 173 174 188 171 172 212 223 134 112 111 111 129 171 162 147 137 83 69 68 63 42 36 39 24 18 19 23 26
259 267 252 195 206 220 216 223 225 191 178 176 179 180 177 182 184 182 178 171 187 210 159 190 165 149 140 160 221 209 179 164 140 109 95 89 90 55 57 69 58 34 17 16
247 294 310 233 195 206 212 212 216 202 189 182 183 186 185 188 184 181 182 185 185 178 198 233 188 158 153 167 264 268 137 111 124 140 143 151 142 125 54 80 99 77 63 60
259 308 331 345 8 201 213 211 211 208 198 191 189 191 193 189 180 178 188 196 192 182 194 217 198 177 164 167 230 274 231 149 145 147 164 196 181 167 163 155 90 54 67 75
317 313 289 267 248 227 223 216 211 210 206 199 194 193 195 196 188 185 193 199 199 190 191 203 204 195 172 168 199 246 239 137 161 187 227 242 220 210 179 170 181 194 208 210
322 289 278 290 269 236 226 219 214 212 208 204 198 196 196 199 198 192 192 197 196 198 200 204 203 195 175 177 202 227 220 188 190 191 210 232 225 229 222 203 190 165 154 188
332 327 307 285 279 262 238 229 224 220 212 208 203 201 200 199 200 195 192 193 198 206 207 204 203 190 174 182 206 228 217 174 177 219 238 231 221 219 221 217 213 190 166 166
346 338 327 307 286 271 253 244 238 231 221 213 207 202 201 199 201 202 199 195 200 211 209 203 198 184 173 182 199 209 210 189 190 216 246 251 235 223 217 209 215 195 162 154
347 338 329 313 297 286 272 256 245 239 232 220 207 203 204 205 206 204 201 198 201 211 216 208 191 179 177 185 202 213 218 199 186 203 222 235 240 238 232 220 216 197 166 164
350 345 340 334 324 308 291 274 258 244 236 227 215 209 207 208 207 205 203 204 206 208 209 206 199 189 183 189 197 202 224 239 220 211 211 216 217 233 245 239 228 215 186 169
353 348 344 337 331 322 312 301 283 261 243 233 225 215 210 208 206 207 209 210 205 198 191 191 190 193 198 194 187 196 212 229 233 229 221 214 207 214 227 230 220 216 211 190
354 351 347 342 336 330 324 316 308 292 268 243 236 228 218 210 205 207 212 217 204 187 186 190 189 186 194 189 182 196 206 220 224 223 227 222 215 218 225 231 222 210 210 208
353 351 348 344 340 336 333 329 323 314 302 278 258 247 235 222 214 213 214 205 193 183 178 178 185 187 190 183 180 196 205 217 223 221 223 229 227 225 228 232 230 219 209 205
348 349 348 347 343 339 341 343 338 329 320 308 292 274 256 242 224 216 220 199 185 181 182 183 187 193 194 189 187 194 204 213 217 217 217 220 225 228 231 236 235 229 219 210
340 343 346 347 347 349 349 346 341 338 337 332 326 317 298 278 262 242 222 197 193 181 184 190 189 191 189 194 199 204 210 209 207 208 215 217 217 222 227 228 228 226 224 223
332 335 341 345 349 348 344 343 345 349 351 349 344 339 329 317 303 294 279 205 177 173 183 187 184 184 187 198 203 211 214 213 206 199 201 206 212 217 225 236 235 229 225 224
319 320 325 330 339 339 340 344 347 350 354 354 348 344 341 338 337 337 330 338 152 173 183 169 176 186 200 206 211 215 217 215 202 193 193 194 205 210 213 222 239 239 235 231
307 309 312 318 330 339 339 341 344 350 357 350 338 340 344 349 353 351 348 349 53 157 212 201 184 190 203 208 212 217 217 214 202 189 189 193 200 210 217 221 219 222 226 229